Theta_e
299 297 298 298 298 297 298 299 299 298 296 296 296 295 298 299 299 298 300 301 302 303 303 302 302 301 301 301 300 300 299 299 299 299 301 301 301 301 301 301 301 300 300 300
297 298 297 298 298 299 299 300 299 297 297 296 296 297 298 296 296 298 298 300 301 303 303 302 302 301 301 300 300 301 300 299 298 299 299 300 300 300 300 301 301 300 300 299
299 297 297 298 297 299 298 300 298 298 296 295 294 298 300 299 298 299 299 299 302 303 303 302 302 301 301 300 300 300 300 299 298 300 300 301 300 300 300 300 300 300 299 298
295 296 298 298 299 297 301 297 297 297 297 301 295 302 299 299 297 298 300 300 302 303 302 302 302 301 301 300 300 300 300 298 300 301 300 300 299 299 299 300 299 299 299 298
298 296 298 299 298 297 299 297 297 297 296 296 298 297 299 298 301 300 299 301 302 303 302 302 302 301 301 300 300 299 299 298 300 301 300 300 299 299 299 299 299 299 298 298
295 296 296 297 296 297 296 297 297 295 296 299 299 297 301 301 301 302 300 302 303 302 302 302 301 301 301 300 300 299 298 299 301 301 300 299 299 298 298 297 297 297 298 298
298 297 295 295 297 296 297 299 301 301 299 304 297 297 301 301 299 299 301 302 303 303 302 302 301 301 301 300 299 299 298 299 301 300 300 299 298 297 297 295 295 296 297 297
298 300 296 294 295 297 296 298 300 301 302 301 297 300 303 299 300 299 301 302 302 302 302 301 301 301 301 299 299 298 298 300 301 300 299 298 297 296 295 295 294 293 295 295
296 299 294 294 294 295 297 297 296 295 291 297 299 298 300 299 297 299 301 300 301 302 302 302 301 301 300 299 298 298 298 300 301 300 299 298 297 296 295 293 291 291 292 292
297 298 295 294 294 294 296 295 297 294 297 297 300 300 304 305 304 299 297 299 302 301 301 301 301 300 300 298 298 298 298 300 300 299 298 298 297 296 294 293 293 292 292 291
287 294 295 293 292 295 294 294 293 294 297 300 299 301 298 300 301 299 297 301 302 301 301 300 300 300 299 298 298 298 298 300 300 299 298 298 297 296 294 293 292 291 291 292
292 291 295 295 293 292 294 295 296 297 296 294 298 299 299 298 297 298 300 301 301 301 301 302 300 299 299 298 298 298 298 300 299 298 298 297 296 294 292 292 291 291 291 290
293 291 291 296 293 291 290 294 295 294 294 293 296 302 297 298 298 299 299 302 302 302 301 300 299 299 299 298 298 298 298 300 298 297 297 297 295 293 292 291 291 290 290 289
296 291 294 300 297 291 290 288 294 292 291 296 297 302 303 302 301 299 300 301 300 299 298 298 299 300 299 298 298 298 299 299 297 297 297 296 294 292 291 290 290 289 288 287
292 291 289 290 294 289 290 288 291 295 298 298 302 298 301 301 298 298 299 298 298 299 300 300 300 299 298 298 298 298 299 298 297 296 297 295 294 292 291 290 289 288 287 287
290 289 287 288 292 294 294 292 291 296 297 297 298 298 299 300 300 299 298 297 299 300 300 300 300 299 298 298 297 298 299 297 297 296 296 295 294 292 292 290 289 288 287 287
291 288 287 290 292 292 294 294 294 296 294 296 297 299 301 299 297 298 299 299 299 300 300 300 299 299 298 298 298 298 298 297 297 297 296 295 293 293 292 290 289 288 288 287
293 291 292 287 286 296 304 295 293 296 297 296 297 297 299 299 298 298 298 298 299 301 301 300 300 299 298 298 297 298 297 297 297 297 296 294 294 293 292 291 290 289 288 287
292 296 294 296 283 295 303 296 293 292 300 296 296 296 297 298 297 299 304 303 304 303 301 301 300 298 298 298 297 298 296 297 297 296 296 294 294 294 292 291 291 290 289 289
293 295 299 289 298 299 305 295 294 293 301 299 298 297 297 296 297 298 304 304 304 303 302 301 299 299 298 297 297 298 296 297 297 296 295 294 294 294 292 292 292 292 290 290
295 294 297 295 296 293 294 294 294 302 307 302 301 300 296 295 298 303 303 302 302 301 300 300 299 299 298 297 297 297 295 296 297 296 296 294 294 294 294 293 293 293 292 292
296 296 296 296 296 298 293 293 299 302 304 305 304 302 301 303 302 302 301 301 301 300 300 299 299 299 298 297 297 297 296 296 297 296 296 295 295 295 295 293 294 293 293 292
298 297 295 297 297 295 294 298 301 304 305 304 303 304 303 302 302 302 302 301 301 300 299 298 298 298 298 297 297 296 297 295 296 296 296 295 295 294 295 294 294 294 293 292
292 294 296 296 298 296 295 298 298 301 301 303 304 303 301 301 302 301 301 302 301 301 300 299 298 298 297 298 297 296 297 295 295 292 295 295 295 295 294 294 293 294 293 290
296 295 297 295 297 299 300 298 300 302 302 300 304 303 303 300 300 301 300 300 301 300 300 298 298 298 298 297 297 296 296 296 294 293 291 295 295 295 295 294 294 292 290 287
293 295 300 303 303 306 308 306 305 304 305 305 305 305 306 304 302 303 302 302 302 302 302 300 299 298 299 298 297 296 296 296 294 292 291 290 295 295 295 294 294 293 290 288
Wind_Speed
6 6 3 3 0 1 5 2 2 3 1 5 4 10 23 18 26 28 35 35 33 28 16 12 9 10 14 20 23 27 26 29 30 32 35 38 40 41 41 40 39 38 36 29
6 3 3 1 2 2 2 1 3 5 1 3 5 17 16 7 9 21 27 34 32 25 21 14 12 12 14 20 22 26 26 28 30 31 34 38 42 43 43 44 44 39 33 30
5 2 2 0 4 2 2 1 2 2 8 1 8 8 5 3 5 7 13 19 24 24 20 15 14 13 15 19 23 26 28 29 30 31 36 39 41 44 46 45 43 40 34 32
5 1 2 2 3 2 1 2 2 4 6 3 4 5 8 4 8 5 6 14 24 22 20 17 15 13 16 19 23 27 28 28 29 32 36 38 42 46 44 44 44 41 36 32
2 2 2 2 1 1 2 1 1 1 2 3 1 2 9 4 6 6 9 14 18 20 19 18 16 13 17 19 25 27 27 28 30 34 36 39 42 42 44 43 44 42 39 37
3 1 1 2 2 2 2 2 3 3 2 2 1 3 6 4 5 2 4 15 17 18 18 17 14 16 18 22 26 26 28 30 32 34 36 38 40 42 44 45 44 44 42 40
3 1 1 1 3 2 2 4 3 5 3 4 0 1 12 3 6 5 4 8 14 16 18 16 16 17 22 27 25 28 29 31 32 35 38 39 40 41 43 45 45 42 40 39
4 5 1 3 2 2 2 3 4 5 2 5 3 7 6 6 4 11 11 9 11 14 14 15 15 19 26 24 25 27 29 32 34 37 40 41 42 43 41 40 38 40 39 38
5 4 1 2 1 1 3 1 1 5 2 3 4 8 11 7 11 15 17 14 14 14 11 12 15 22 21 22 25 26 30 33 35 38 41 43 44 43 40 37 36 37 40 38
5 2 1 2 2 2 3 5 3 3 2 5 5 5 8 4 3 2 7 18 17 16 10 12 15 22 20 21 24 26 29 33 36 38 42 44 44 40 36 35 37 39 39 38
3 3 1 2 5 7 3 2 3 3 4 4 3 6 7 7 4 8 11 20 20 19 16 17 22 25 21 22 24 26 30 33 35 39 42 44 42 38 35 36 38 38 40 41
5 5 4 6 1 1 1 3 5 4 6 3 2 9 4 7 7 7 14 13 14 19 23 25 29 27 20 22 23 27 30 32 35 38 41 42 40 38 36 35 36 37 40 41
4 2 2 7 4 4 3 5 3 4 2 7 5 7 1 3 4 10 16 15 17 20 27 33 29 21 19 21 23 26 28 31 34 37 38 39 38 36 34 35 35 36 37 38
8 2 6 7 5 4 4 4 6 5 3 4 9 21 22 20 15 14 23 28 28 29 33 28 20 16 19 20 22 25 27 30 33 35 37 37 35 34 34 34 33 35 36 38
6 6 4 4 4 2 4 5 8 13 13 9 23 16 25 22 8 14 21 28 33 31 22 17 15 16 18 19 21 23 25 28 31 33 34 34 34 33 33 33 36 36 37 36
1 3 3 4 2 5 7 7 11 20 13 17 26 29 31 44 39 34 31 26 24 27 28 18 15 18 15 18 20 22 23 26 28 29 31 32 32 34 33 34 35 36 37 39
7 6 3 6 3 3 11 14 23 16 8 17 17 28 27 20 14 20 28 29 30 30 28 21 17 15 14 16 19 20 21 23 25 27 29 30 32 34 33 34 34 36 37 36
8 6 2 3 2 3 8 2 5 20 17 22 19 24 26 20 22 31 36 34 36 30 21 13 11 11 13 14 17 17 19 20 22 25 27 28 30 32 31 32 34 35 34 30
5 5 3 3 5 8 16 8 10 9 14 23 26 28 36 22 21 38 19 16 10 7 7 7 8 11 12 13 15 16 16 17 19 22 24 26 28 30 30 32 32 31 29 26
4 3 7 4 5 10 7 2 9 7 9 17 19 19 12 9 2 6 6 6 6 7 5 6 9 13 12 12 14 14 13 14 17 19 21 23 25 27 28 30 29 27 24 25
6 4 16 8 5 10 14 6 8 5 8 4 9 21 14 6 13 6 4 7 7 6 5 5 9 12 12 12 14 13 12 12 14 15 18 19 20 23 26 27 27 25 24 29
13 11 6 6 6 13 18 7 10 8 13 14 12 10 15 17 23 19 15 12 12 12 11 9 11 14 13 13 14 13 10 9 10 11 14 15 16 18 20 22 23 25 26 30
7 11 10 15 10 6 29 11 43 19 21 17 14 17 18 20 23 23 24 23 23 22 21 19 16 17 17 16 15 14 10 7 6 7 9 11 12 14 17 18 20 22 26 31
5 8 5 6 16 22 30 41 31 29 32 26 26 31 29 30 29 30 29 27 28 27 29 26 24 24 21 19 18 15 13 10 7 3 5 6 8 9 12 12 15 18 22 26
7 15 12 4 14 15 29 36 47 48 46 44 45 45 42 45 44 41 41 38 35 34 33 32 31 29 25 21 20 18 16 14 11 8 4 2 3 6 9 9 10 15 17 18
10 10 10 12 34 20 31 23 31 36 35 33 33 34 34 36 38 32 30 26 24 25 28 26 23 23 21 23 23 21 19 17 16 12 8 5 2 2 5 6 6 9 10 12
Wind_Direction
23 65 106 147 331 106 102 99 274 262 42 334 236 277 280 259 249 244 243 242 245 249 244 250 275 301 322 328 329 328 323 324 323 323 322 321 323 323 322 321 320 319 317 308
30 89 188 266 346 104 69 150 276 276 163 6 341 291 282 261 240 243 240 238 235 233 231 242 264 285 304 318 322 324 322 317 319 320 318 319 319 319 318 321 322 322 318 312
128 114 128 75 35 97 49 30 4 289 325 233 316 290 318 278 271 269 248 236 225 222 228 244 259 277 300 311 313 321 322 316 317 315 316 316 316 317 320 320 318 317 314 309
85 1 78 76 84 44 322 78 59 335 14 288 14 280 302 323 301 263 248 215 214 223 229 247 262 274 302 309 314 319 320 317 317 316 316 317 316 316 316 314 314 313 312 309
186 121 110 107 99 39 152 27 56 87 72 348 8 45 271 341 285 265 240 222 219 223 231 251 260 279 301 308 317 318 319 317 316 316 317 317 314 313 312 312 311 310 309 307
106 106 64 114 63 84 149 129 65 52 72 9 236 136 279 219 216 233 231 226 223 223 233 250 255 283 304 311 314 316 318 319 318 318 319 318 315 315 313 313 309 307 306 306
10 185 99 100 147 159 119 63 328 348 3 228 348 219 246 269 241 228 213 226 223 228 234 241 259 295 310 310 312 318 320 320 321 323 323 320 317 317 316 312 309 307 305 304
142 319 41 359 50 140 94 145 158 230 250 279 297 237 252 219 239 258 241 254 221 215 221 249 276 304 308 306 313 319 320 323 326 326 323 322 322 321 317 316 314 309 307 302
132 253 160 81 79 78 154 139 149 99 64 34 241 288 294 252 262 261 245 229 235 232 227 278 282 308 305 303 315 319 323 326 326 326 325 324 325 323 318 319 314 306 307 305
219 71 345 73 127 75 161 153 74 6 332 294 278 277 245 294 274 250 234 236 237 229 241 311 290 318 306 305 315 319 323 324 326 327 326 326 328 323 316 312 311 310 311 307
124 107 266 47 207 174 141 174 61 115 160 199 297 254 219 236 244 239 242 246 248 235 245 301 317 320 302 307 313 318 322 325 328 328 330 330 331 327 320 317 314 308 308 306
203 147 182 215 118 20 331 218 174 134 229 226 153 267 262 231 246 249 260 267 261 254 261 287 310 311 297 305 312 320 324 327 329 331 333 334 334 332 330 322 318 319 312 308
205 290 25 339 360 3 215 199 200 88 79 203 155 259 172 240 264 258 257 267 278 276 284 293 299 295 297 304 314 321 325 326 330 335 337 337 337 338 334 330 327 322 320 319
139 119 181 195 206 132 200 220 189 148 149 184 223 273 265 270 273 271 269 276 287 291 292 293 292 292 299 304 315 322 325 329 334 340 340 341 343 342 339 336 334 334 333 330
139 200 168 242 210 177 214 184 186 208 218 208 267 239 266 267 259 257 282 289 290 292 294 293 288 298 297 305 316 323 325 331 337 342 343 347 346 346 343 345 346 343 340 335
190 204 123 291 4 212 265 199 210 222 234 256 258 274 266 276 280 273 275 275 277 288 294 300 284 297 295 308 318 322 326 334 341 344 348 352 350 350 348 354 350 348 345 343
156 138 111 261 10 352 287 217 211 221 198 227 245 245 270 278 268 267 273 278 278 283 286 290 282 283 293 308 317 321 325 336 343 345 354 356 354 352 354 359 354 354 351 350
150 140 121 203 28 239 254 135 176 214 238 224 250 261 259 269 290 288 281 274 278 279 284 278 269 271 296 306 315 318 326 336 344 349 357 359 357 354 2 3 2 359 358 354
174 133 154 178 204 301 285 201 169 167 252 222 234 249 259 280 291 291 281 249 238 250 250 259 267 283 296 302 313 315 322 334 345 354 1 5 2 1 10 10 6 4 2 6
179 70 184 143 202 209 264 100 147 138 275 224 213 241 259 149 268 259 213 180 183 202 229 261 285 288 291 298 306 305 318 333 348 355 4 10 7 11 20 18 13 13 17 22
172 181 206 195 223 280 245 161 154 128 253 193 200 233 185 194 216 278 225 206 221 233 242 259 295 294 284 288 296 297 311 333 347 356 7 13 12 25 31 35 28 29 31 44
171 165 191 178 200 258 152 127 186 203 212 228 241 244 222 257 247 256 253 248 248 256 257 268 295 311 281 276 285 286 296 320 340 355 15 19 24 32 34 45 40 43 47 49
194 186 174 191 205 252 197 221 213 222 223 222 246 267 271 267 269 276 271 272 273 265 266 259 274 295 284 269 272 271 276 292 319 357 23 29 32 36 44 51 58 56 53 49
245 175 178 128 242 244 237 235 242 242 248 256 267 277 279 272 274 275 277 280 281 281 272 266 267 278 282 266 259 259 256 258 260 308 14 29 35 34 39 46 66 59 55 50
177 155 202 262 275 262 260 248 251 250 256 262 271 272 277 277 277 276 277 279 281 281 276 272 273 270 272 259 249 246 246 241 244 250 296 342 30 42 39 48 67 72 69 47
186 178 184 216 232 222 245 242 248 250 258 269 271 277 282 281 281 284 281 282 280 276 277 276 269 262 261 248 241 239 240 237 237 243 256 254 264 63 57 53 68 100 84 54